www.pogodaiklimat.ru

Погода и климат >> Архив погоды >> Норвегия >> Fagernes


ПОГОДА в Fagernes

  • Прогноз погоды в Fagernes
  • Монитор погоды в Fagernes
  • Климат города

АРХИВ ПОГОДЫ в Fagernes

Время (UTC), дата Ветер
(напр.,м/с)
 
Видим.   Явления Облачность Т
(С)
Тd
(С)
f
(%)
Тe
(С)
Тes
(С)
Комфортность P
(гПа)
Po
(гПа)
Тmin
(С)
Tmax
(С)
R
(мм)
R24
(мм)
S
(см)
02 20.04 штиль 0
{2}
н/о н/о +0.9 -0.5 90 -0 -0 1022.8 977.6
01 20.04 штиль 0
{1}
н/о н/о +1.3 -0.5 88 0 0 1023.1 978.0
03 20.04 штиль 0
{1}
>70 км ясно +0.4 -0.9 91 -1 -1 1022.4 977.1
04 20.04 штиль 0
{1}
н/о н/о +0.5 -0.6 92 -1 -1 1021.7 976.4
05 20.04 З 2-3
{3}
н/о н/о +0.7 -0.9 89 -3 -3 1021.3 976.1
06 20.04 штиль 0
{3}
>70 км ясно +1.0 -0.7 88 -0 +2 1020.8 975.7 0.0 +9.7
08 20.04 штиль 0
{1}
н/о н/о +3.8 +0.9 81 +3 +3 1018.9 974.3
07 20.04 В 1-1
{1}
н/о н/о +1.9 -0.8 82 0 0 1019.9 975.0
09 20.04 штиль 0-1
{1}
>70 км ясно +4.1 +0.3 76 +3 +13 опасность
простуды
1018.0 973.5
10 20.04 штиль 0
{1}
н/о н/о +6.7 +0.4 64 +6 +6 1016.5 972.5
11 20.04 штиль 0-1
{1}
н/о н/о +8.2 +1.4 62 +8 +8 1015.3 971.5
12 20.04 штиль 0
{2}
30 км 9/0
[Ac und]
+9.9 +2.8 61 +10 +14 1013.9 970.4
14 20.04 З 1-3
{8}
н/о н/о +12.4 +1.7 48 +13 +13 1012.4 969.4
13 20.04 ЮЗ 4-8
{8}
н/о н/о +13.6 +1.9 45 +12 +12 1012.2 969.4
15 20.04 штиль 0
{2}
н/о н/о +13.6 +1.9 45 +14 +14 1011.5 968.7
16 20.04 штиль 0
{3}
н/о н/о +13.6 +0.3 40 +14 +14 1011.1 968.3
17 20.04 З 1-2
{3}
н/о н/о +11.8 -1.0 41 +12 +12 1011.3 968.2
18 20.04 штиль 0
{8}
н/о н/о +8.9 -1.2 49 +9 +9 1011.0 967.5 +1.0 +14.3
20 20.04 штиль 0
{2}
н/о н/о +5.7 -1.0 62 +5 +5 1011.2 967.2
19 20.04 З 1-2
{2}
н/о н/о +7.7 -0.5 56 +7 +7 1011.1 967.5
21 20.04 штиль 0-1
{2}
н/о н/о +3.9 -1.4 68 +3 +3 1011.2 967.0
22 20.04 штиль 0
{2}
н/о н/о +2.8 -1.7 72 +2 +2 1011.5 967.1
23 20.04 штиль 0-4
{4}
н/о н/о +6.9 -1.0 57 +6 +6 1011.0 967.2
00 21.04 штиль 0-2
{4}
>70 км ясно +5.1 -1.1 64 +5 +5 1011.2 967.2
02 21.04 штиль 0
{2}
н/о н/о +4.8 -1.8 62 +4 +4 1011.0 967.0
01 21.04 штиль 0
{2}
н/о н/о +6.0 -1.4 59 +6 +6 1011.0 967.1
03 21.04 штиль 0-3
{3}
>70 км 3/3 1000 м
[Cu hum Ac lent]
+6.4 -2.4 53 +6 +6 1011.3 967.4
04 21.04 штиль 0-1
{2}
н/о н/о +5.5 -2.3 57 +5 +5 1011.1 967.1
05 21.04 ЮЗ 1-2
{3}
н/о н/о +6.3 -2.3 54 +6 +6 1011.6 967.7
06 21.04 ЮЗ 3-4
{4}
>70 км 3/0
[Ac lent]
+7.1 -3.1 48 +5 +6 1012.1 968.4 +2.3 +9.5
08 21.04 З 6-8
{8}
н/о н/о +8.4 -3.1 44 +5 +5 1011.9 968.3
07 21.04 З 2-5
{5}
н/о н/о +8.4 -3.1 44 +7 +7 1011.8 968.3
09 21.04 ЮЗ 5-6
{9}
н/о н/о +8.5 -2.7 45 +6 +6 1012.7 969.1
10 21.04 З 5-7
{7}
н/о н/о +8.7 -2.2 46 +6 +6 1013.1 969.5
11 21.04 З 5-6
{7}
н/о н/о +9.1 -2.5 44 +6 +6 1013.5 970.0
12 21.04 З 4-6
{9}
н/о н/о +8.6 -2.3 46 +6 +6 1013.9 970.3
14 21.04 З 5-8
{10}
н/о н/о +9.7 -2.5 42 +7 +7 1014.1 970.6
13 21.04 З 7-8
{8}
н/о н/о +9.1 -2.5 44 +6 +6 1013.8 970.2
15 21.04 З 4-7
{9}
>70 км 5/5 1000 м
[Cu hum Ac trans Cs]
+9.9 -2.7 41 +8 +9 1014.2 970.8
16 21.04 ЮЗ 5-8
{8}
н/о н/о +8.8 -3.0 43 +6 +6 1014.5 970.9
17 21.04 ЮЗ 3-5
{7}
н/о н/о +8.4 -3.4 43 +6 +6 1015.0 971.3
18 21.04 З 3-4
{10}
н/о н/о +8.0 -2.6 47 +6 +6 1015.4 971.7 +6.6 +10.2
20 21.04 штиль 0
{1}
н/о н/о +5.2 -2.8 56 +5 +5 1016.6 972.4
19 21.04 штиль 0
{4}
н/о н/о +6.7 -2.7 51 +6 +6 1016.0 972.0
21 21.04 штиль 0
{2}
н/о н/о +4.4 -2.4 61 +4 +4 1017.0 972.6
22 21.04 штиль 0
{1}
н/о н/о +2.0 -2.3 73 +1 +1 1017.7 972.9
23 21.04 штиль 0
{1}
н/о н/о +1.5 -2.2 76 +1 +1 1017.8 972.9
00 22.04 штиль 0-1
{4}
>70 км 3/0
[]
+1.4 -2.7 74 +1 +1 1017.8 972.9
02 22.04 штиль 0-1
{2}
н/о н/о +0.6 -2.4 80 -0 -0 1017.9 972.9
01 22.04 штиль 0
{2}
н/о н/о +0.7 -2.2 81 -0 -0 1017.6 972.6
03 22.04 С 2-2
{2}
>70 км 3/0
[]
+0.6 -2.3 81 -3 -3 1018.1 973.0
04 22.04 штиль 0
{2}
н/о н/о +0.5 -2.4 81 -1 -1 1018.0 973.0
05 22.04 штиль 0
{1}
н/о н/о +0.8 -2.1 81 -0 -0 1018.0 972.9
06 22.04 С 1-2
{2}
65 км 5/0
[]
+2.8 -2.5 68 +2 +3 1017.9 973.2 0.0 +8.2
08 22.04 штиль 0
{2}
н/о н/о +5.5 -2.5 56 +5 +5 1016.7 972.5
07 22.04 штиль 0
{2}
н/о н/о +4.2 -1.8 65 +4 +4 1017.6 973.1
09 22.04 штиль 0-1
{2}
>70 км 4/0
[]
+7.0 -1.9 53 +7 +15 1015.9 972.0
10 22.04 В 2-3
{3}
н/о н/о +7.8 -3.1 46 +6 +6 1014.9 971.2
11 22.04 штиль 0-1
{3}
н/о н/о +10.8 -2.9 38 +11 +11 1013.7 970.4
12 22.04 штиль 0-1
{3}
>70 км 5/0
[]
+11.5 -3.8 34 +12 +22 1012.7 969.6
14 22.04 штиль 0-1
{4}
н/о н/о +12.6 -4.0 31 +13 +13 1011.3 968.4
13 22.04 штиль 0-1
{4}
н/о н/о +11.1 -4.1 34 +11 +11 1012.2 969.1
15 22.04 В 2-4
{4}
н/о н/о +9.8 -2.8 41 +9 +9 1011.4 968.0
16 22.04 В 2-4
{4}
н/о н/о +9.9 -2.7 41 +9 +9 1011.0 967.7
17 22.04 В 2-4
{4}
н/о н/о +9.1 -2.5 44 +8 +8 1010.6 967.2
18 22.04 ЮВ 1-2
{4}
н/о н/о +9.6 -2.0 44 +10 +10 1010.7 967.3 +2.2 +13.0
20 22.04 штиль 0
{2}
н/о н/о +4.8 +1.8 81 +4 +4 1011.3 967.2
19 22.04 З 1-2
{5}
н/о н/о +5.7 +2.4 79 +5 +5 1011.6 967.7
21 22.04 штиль 0
{1}
н/о н/о +4.6 +2.0 83 +4 +4 1010.8 966.7
22 22.04 штиль 0-1
{1}
н/о н/о +3.8 +2.6 92 +3 +3 1010.4 966.2
23 22.04 штиль 0-2
{2}
н/о н/о +4.5 +2.7 88 +3 +3 1009.8 965.7
00 23.04 штиль 0-1
{5}
20 км слабый дождь 10/10 1500 м
[Frnb]
+4.5 +2.7 88 +3 +3 1008.9 964.9
02 23.04 штиль 0
{2}
н/о н/о +4.1 +2.3 88 +3 +3 1007.0 963.0
01 23.04 -2
{2}
н/о н/о +4.5 +2.7 88 1007.8 963.8
03 23.04 С 1-2
{2}
20 км слабый дождь {морось} 10/10 1500 м
[Frnb]
+4.7 +2.1 83 +3 +3 1006.1 962.2
04 23.04 штиль 0-1
{2}
н/о н/о +4.3 +1.9 84 +3 +3 1005.0 961.1
05 23.04 штиль 0-1
{1}
н/о н/о +2.5 +0.3 85 +1 +1 1004.5 960.3
06 23.04 штиль 0
{2}
20 км слабый дождь 10/10 1500 м
[Frnb]
+1.7 +0.6 92 +1 +1 1003.9 959.7 +1.7 +9.8
08 23.04 штиль 0
{1}
н/о н/о +1.5 +0.4 92 0 0 1003.2 959.0
07 23.04 штиль 0-1
{1}
н/о н/о +2.0 +0.8 92 +1 +1 1003.3 959.1
09 23.04 штиль 0
{1}
н/о н/о +1.2 -0.1 91 0 0 1002.0 957.7
10 23.04 штиль 0 н/о н/о +1.6 +0.3 91 0 0 1001.5 957.4
11 23.04 штиль 0-1
{1}
н/о н/о +1.9 +0.4 90 +1 +1 1001.0 956.9
12 23.04 штиль 0-1
{1}
10 км в посл. час ливневой дождь {снег} 10/10 600 м
[Frnb]
+3.1 +0.7 84 +2 +2 1000.4 956.5
14 23.04 штиль 0 н/о н/о +1.7 +0.2 90 +1 +1 999.9 955.9
13 23.04 штиль 0
{1}
н/о н/о +1.9 +0.6 91 +1 +1 1000.3 956.2
15 23.04 штиль 0 5000 м слабый дождь {снег} 10/5 300 м
[Frnb As op]
+2.3 +0.8 90 +1 +2 999.4 955.5
16 23.04 штиль 0 н/о н/о +3.5 +0.6 81 +3 +3 998.8 955.1
17 23.04 штиль 0 н/о н/о +3.0 +1.4 89 +2 +2 998.7 954.9
18 23.04 штиль 0
{1}
н/о н/о +2.9 +1.1 88 +2 +2 998.3 954.4 +0.8 +3.7
20 23.04 штиль 0
{1}
н/о н/о +2.6 +1.4 92 +1 +1 998.6 954.8
19 23.04 штиль 0 н/о н/о +2.0 +0.7 91 +1 +1 998.6 954.7
21 23.04 штиль 0 н/о н/о +2.6 +1.4 92 +1 +1 998.5 954.7
22 23.04 штиль 0 н/о н/о +2.1 +0.9 92 +1 +1 998.6 954.6
23 23.04 штиль 0-1
{1}
н/о н/о +2.7 +1.7 93 +2 +2 998.6 954.7
00 24.04 штиль 0
{1}
н/о н/о +1.6 +0.6 93 0 0 998.5 954.5
02 24.04 штиль 0
{1}
н/о н/о +1.2 +0.4 94 -0 -0 998.1 954.0
01 24.04 штиль 0-1
{1}
н/о н/о +1.7 +0.8 94 0 0 998.3 954.3
03 24.04 штиль 0-1
{1}
н/о н/о +0.7 -0.1 94 -1 -1 998.1 953.9
04 24.04 штиль 0
{1}
н/о н/о +0.4 -0.3 95 -1 -1 997.6 953.4
05 24.04 штиль 0
{1}
н/о н/о +0.1 -0.6 95 -1 -1 997.6 953.3
06 24.04 штиль 0-1
{2}
1000 м дымка 10/10 <50 м
[Frnb]
+0.4 -0.3 95 -1 -1 997.4 953.3 +0.1 +3.1
08 24.04 СВ 1-2
{3}
н/о н/о +3.6 +0.8 82 +2 +2 996.7 953.0
07 24.04 штиль 0
{2}
н/о н/о +1.1 +0.3 94 -0 -0 997.4 953.3
09 24.04 С 1-2
{2}
н/о н/о +5.6 +1.2 73 +5 +5 996.1 952.8
10 24.04 штиль 0-1
{3}
н/о н/о +7.8 +0.6 60 +7 +7 995.2 952.2
11 24.04 ЮЗ 2-3
{3}
н/о н/о +8.0 -0.7 54 +7 +7 994.8 951.9
12 24.04 ЮЗ 3-4
{4}
25 км 8/0
[Ac und]
+7.9 -0.3 56 +6 +9 994.6 951.7
14 24.04 ЮЗ 3-6
{6}
н/о н/о +9.0 -0.3 52 +7 +7 993.6 950.9
13 24.04 ЮЗ 2-3
{4}
н/о н/о +8.7 -0.6 52 +7 +7 994.1 951.3
15 24.04 З 2-3
{4}
30 км 10/0
[Ac cuf Ci fib]
+7.9 -0.1 57 +6 +8 994.3 951.4
16 24.04 З 2-3
{3}
н/о н/о +7.7 -1.5 52 +6 +6 994.4 951.5
17 24.04 З 2-3
{4}
н/о н/о +8.8 -2.7 44 +8 +8 994.5 951.8
18 24.04 штиль 0-1
{6}
30 км 10/0
[Ac cuf Ci fib]
+7.3 -2.1 51 +7 +7 995.2 952.2 +0.5 +10.1
20 24.04 штиль 0
{2}
н/о н/о +3.4 -1.5 70 +3 +3 996.5 952.8
19 24.04 штиль 0
{1}
н/о н/о +5.5 -2.1 58 +5 +5 995.8 952.5
21 24.04 штиль 0-1
{2}
н/о н/о +2.0 -1.6 77 +1 +1 996.8 953.0
22 24.04 штиль 0
{1}
н/о н/о +1.6 -1.8 78 +1 +1 997.3 953.3
23 24.04 штиль 0 н/о н/о +0.4 -2.0 84 -1 -1 997.5 953.3
00 25.04 штиль 0
{2}
н/о н/о -0.1 -1.9 88 -1 -1 997.5 953.2
02 25.04 штиль 0 н/о н/о +0.3 -1.4 88 -1 -1 997.6 953.4
01 25.04 штиль 0
{1}
н/о н/о -0.4 -1.9 90 -2 -2 997.5 953.2
03 25.04 штиль 0-1
{1}
55 км ясно -0.6 -2.0 90 -2 -2 997.8 953.4
04 25.04 штиль 0 н/о н/о -1.0 -2.3 91 -2 -2 997.8 953.4
05 25.04 штиль 0 н/о н/о -0.4 -1.7 91 -2 -2 997.8 953.5
06 25.04 штиль 0
{1}
55 км 9/0
[Ac und]
+0.2 -1.5 88 -1 0 997.9 953.6 -1.1 +7.5
08 25.04 штиль 0
{1}
н/о н/о +2.9 -1.1 75 +2 +2 997.7 953.9
07 25.04 штиль 0 н/о н/о +1.4 -1.5 81 0 0 997.8 953.8
09 25.04 штиль 0-2
{2}
65 км 9/0
[Ac As]
+6.3 -1.6 57 +6 +10 997.2 953.9
10 25.04 ЮЗ 3-4
{5}
н/о н/о +7.1 -4.6 43 +5 +5 997.0 953.9
11 25.04 З 2-4
{7}
н/о н/о +8.1 -4.6 40 +7 +7 997.0 954.0
12 25.04 ЮЗ 2-3
{7}
65 км 9/4 1500 м
[Cu Sc Ac As Ci sp]
+7.7 -4.0 43 +6 +10 997.3 954.3
14 25.04 З 4-7
{7}
н/о н/о +8.1 -5.0 39 +6 +6 997.2 954.2
13 25.04 ЮЗ 4-5
{5}
н/о н/о +7.7 -4.4 42 +5 +5 997.2 954.2
15 25.04 ЮЗ 3 55 км 8/0 1500 м
[Ac cuf]
+7.7 -5.0 40 +6 +8 997.4 954.3
16 25.04 ЮЗ 3 н/о н/о +6.9 -3.6 47 +5 +5 997.6 954.4
17 25.04 ЮЗ 3-3
{5}
н/о н/о +6.0 -3.9 49 +3 +3 997.6 954.3
18 25.04 ЮЗ 2-4
{7}
н/о н/о +6.7 -2.7 51 +5 +5 998.1 954.8 +0.2 +8.6
20 25.04 штиль 0-1
{1}
н/о н/о +3.3 -0.9 74 +2 +2 999.6 955.8
19 25.04 штиль 0
{4}
н/о н/о +4.7 -1.3 65 +4 +4 999.0 955.4
21 25.04 штиль 0-1
{1}
н/о н/о +2.8 -0.8 77 +2 +2 999.7 955.8
22 25.04 штиль 0 н/о н/о +2.8 -0.6 78 +2 +2 999.8 955.9
23 25.04 штиль 0 н/о н/о +1.9 -0.8 82 +1 +1 1000.1 956.1
00 26.04 штиль 0
{4}
н/о н/о +1.2 -0.9 86 0 0 1000.2 956.1
02 26.04 штиль 0 н/о н/о +0.2 -1.4 89 -1 -1 1000.4 956.1
01 26.04 штиль 0 н/о н/о +0.6 -1.1 88 -1 -1 1000.3 956.1
03 26.04 штиль 0 55 км 10/0
[Ac trans]
+0.1 -1.3 90 -1 -1 1000.4 956.1
04 26.04 штиль 0 н/о н/о -0.2 -1.3 92 -1 -1 1000.6 956.2
05 26.04 штиль 0
{1}
н/о н/о -0.3 -1.3 93 -2 -2 1000.8 956.4
06 26.04 штиль 0
{1}
>70 км ясно +2.0 -0.2 85 +1 +4 1000.5 956.5 -0.3 +6.8
08 26.04 штиль 0
{1}
н/о н/о +4.5 -0.5 70 +4 +4 1000.0 956.3
07 26.04 штиль 0-1
{1}
н/о н/о +2.7 -0.9 77 +2 +2 1000.4 956.4
09 26.04 ЮЗ 3-4
{4}
65 км 4/4 1500 м
[Cu hum]
+5.7 -2.6 55 +3 +7 999.6 956.1
10 26.04 ЮЗ 2-3
{4}
н/о н/о +6.6 -3.3 49 +5 +5 999.7 956.3
11 26.04 ЮЗ 3-3
{3}
н/о н/о +7.2 -3.0 48 +5 +5 999.6 956.4
12 26.04 ЮЗ 2-3
{4}
65 км 4/4 1500 м
[Cu hum]
+8.4 -5.4 37 +7 +14 999.6 956.5
14 26.04 ЮЗ 2-4
{4}
н/о н/о +8.8 -5.4 36 +8 +8 999.7 956.7
13 26.04 ЮЗ 2-3
{4}
н/о н/о +9.4 -5.6 34 +8 +8 999.6 956.7
15 26.04 ЮЗ 2-3
{4}
н/о н/о +9.4 -5.2 35 +8 +8 999.5 956.6
16 26.04 З 3-4
{4}
н/о н/о +8.8 -5.0 37 +7 +7 999.5 956.5
17 26.04 З 1-3
{4}
н/о н/о +8.5 -4.6 39 +8 +8 999.8 956.8
18 26.04 штиль 0-1
{4}
>70 км 10/0
[]
+7.5 -3.6 45 +7 +8 1000.2 957.0 +1.5 +9.9
20 26.04 штиль 0 н/о н/о +2.7 -3.0 66 +2 +2 1001.8 957.8
19 26.04 штиль 0
{1}
н/о н/о +5.2 -2.8 56 +5 +5 1001.0 957.4
21 26.04 штиль 0 н/о н/о +1.2 -2.7 75 0 0 1002.3 958.0
22 26.04 штиль 0-1
{1}
н/о н/о +1.3 -3.2 72 +1 +1 1002.5 958.3
23 26.04 штиль 0 н/о н/о +0.1 -2.8 81 -1 -1 1003.0 958.6

 

Местоположение метеостанции Fagernes (Норвегия): широта 60.99 долгота 9.24 высота над уровнем моря 365 м.

В архиве по умолчанию представлена погода в Fagernes за последнюю неделю. Архивные данные за месяц целиком и за предыдущие месяцы, начиная с января 2011 года, Вы можете получить, выбрав интересующий диапазон дат из раскрывающегося списка и нажав кнопку "Ввод!".


*Определитесь, кто Вы:
робот инопланетянин человек

Внимание! Время в таблицах - всемирное. Для получения местного времени необходимо прибавить поправку, которая в Fagernes равна 1 ч.

Смотрите также архив погоды в соседних городах и на ближайших метеорологических станциях:

Погода в Fagernes Lufthavn (Норвегия) (4 км)
Погода в Loken i Volbu (Норвегия) (17 км)
Погода в Beitostolen II (Норвегия) (34 км)
Погода в Hemsedal II (Норвегия) (38 км)
Погода в Hemsedal-Hollekolten (Норвегия) (41 км)
Погода в Vest-Torpa II (Норвегия) (43 км)
Погода в Nesbyen-Todokk (Норвегия) (47 км)
Погода в Skabu (Норвегия) (61 км)
Погода в Filefjell-Kyrkjestolane (Норвегия) (64 км)
Погода в Lillehammer (Норвегия) (68 км)

Пояснения к столбцам:

Ветер - указаны скорость ветра в м/с - средняя за 10 мин, порывы в срок и между сроками (в фигурных скобках) и направление, откуда дует ветер: С - северный, СВ - северо-восточный, В - восточный, ЮВ - юго-восточный, Ю - южный, ЮЗ - юго-западный, З - западный, СЗ - северо-западный.
Видимость - горизонтальная дальность видимости в метрах или километрах. При видимости от 1 до 10 км при отсутствии осадков обычно наблюдается дымка, при ухудшении видимости до 1 км и менее - туман. В сухую погоду видимость может ухудшаться дымом, пылью или мглою.
Явления - указаны атмосферные явления, наблюдавшиеся в срок или в последний час перед сроком; фигурными скобками обозначены явления, наблюдавшиеся между сроками (за 1-3 часа до срока); квадратными скобками обозначены град или гололедные отложения с указанием их диаметра в мм.
Облачность - указаны через наклонную черту общая и нижняя облачность в баллах и высота нижней границы облаков в метрах; квадратными скобками обозначены формы облаков: Ci - перистые, Cs - перисто-слоистые, Cc - перисто-кучевые, Ac - высококучевые, As - высокослоистые, Sc - слоисто-кучевые, Ns - слоисто-дождевые, Cu - кучевые, Cb - кучево-дождевые. Подробнее классификацию облаков см. в Атласе облаков (PDF).
T - Температура воздуха - температура, измеренная на высоте 2 м над землей.
Td - Температура точки росы - температура, при понижении до которой содержащийся в воздухе водяной пар достигнет насыщения.
f - Относительная влажность воздуха - влажноcть воздуха, измеренная на высоте 2 м над землей.
Te - Эффективная температура - температура, которую ощущает одетый по сезону человек в тени. Характеристика душности погоды. При расчете учитывается влияние влажности воздуха и скорости ветра на теплоощущения человека.
Tes - Эффективная температура на солнце - температура, которую ощущает человек, с поправкой на солнечный нагрев. Характеристика знойности погоды. Зависит от высоты солнца над горизонтом, облачности и скорости ветра. Ночью, в пасмурную погоду, а также при ветре 12 м/с и более поправка равна нулю.
P - Атмосферное давление - приведенное к уровню моря атмосферное давление.
Po - Атмосферное давление - измеренное на уровне метеостанции атмосферное давление.
Tmin - Минимальная температура - минимум температуры воздуха на высоте 2 м над землей.
Tmax - Максимальная температура - максимум температуры воздуха на высоте 2 м над землей.
R - Количество осадков - Количество выпавших осадков за период времени, мм. При наведении курсора мыши на число - период времени, за который выпало указанное количество осадков.
R24 - Количество осадков - Количество выпавших осадков за 24 часа, мм.
S - Снежный покров - Высота снежного покрова, см. При наведении курсора мыши на число - состояние снежного покрова и степень покрытия местности в баллах.